When you browse on this site, cookies collect data to enhance your experience and personalize the content and advertising you see.
Visit our Privacy Policy to learn more. By continuing to use the site, you agree to this use of cookies and data.
  • In Hungary
  • List of Countries
  • For 7 days
  • Water Temperature
  • Weather Map
  • News
  • Weather Widgets
  • user-avatar
    Login

    Hourly Weather Bristol

    Today, 3 June, Wednesday

    Time Temperature Precipitation Wind Pressure Humidity
    00:00 +16°C° 0 mm 1 mps 758 mmHg 85%
    01:00 +16°C° 0 mm 1 mps 758 mmHg 84%
    02:00 +15°C° 0 mm 2 mps 757 mmHg 82%
    03:00 +15°C° 0 mm 2 mps 756 mmHg 81%
    04:00 +15°C° 0.2 mm 2 mps 756 mmHg 82%
    05:00 +14°C° 0.2 mm 2 mps 756 mmHg 84%
    06:00 +14°C° 0.2 mm 1 mps 755 mmHg 86%
    07:00 +14°C° 0.4 mm 2 mps 755 mmHg 87%
    08:00 +14°C° 0.4 mm 2 mps 755 mmHg 89%
    09:00 +14°C° 0.4 mm 2 mps 755 mmHg 90%
    10:00 +14°C° 0.5 mm 2 mps 755 mmHg 91%
    11:00 +15°C° 0.5 mm 2 mps 755 mmHg 91%
    12:00 +15°C° 0.5 mm 2 mps 754 mmHg 91%
    13:00 +13°C° 0.5 mm 3 mps 754 mmHg 92%
    14:00 +13°C° 0.5 mm 4 mps 754 mmHg 92%
    15:00 +13°C° 0.5 mm 6 mps 754 mmHg 93%
    16:00 +11°C° 0.2 mm 6 mps 754 mmHg 93%
    17:00 +11°C° 0.2 mm 6 mps 754 mmHg 93%
    18:00 +11°C° 0.2 mm 6 mps 754 mmHg 93%
    19:00 +10°C° 0.1 mm 6 mps 754 mmHg 93%
    20:00 +10°C° 0.1 mm 6 mps 755 mmHg 93%
    21:00 +10°C° 0.1 mm 5 mps 755 mmHg 92%
    22:00 +9°C° 0 mm 5 mps 755 mmHg 92%
    23:00 +10°C° 0 mm 4 mps 754 mmHg 91%

    Tomorrow, 4 June, Thursday

    Time Temperature Precipitation Wind Pressure Humidity
    00:00 +10°C° 0 mm 3 mps 754 mmHg 91%
    01:00 +9°C° 0 mm 3 mps 754 mmHg 91%
    02:00 +8°C° 0 mm 3 mps 754 mmHg 90%
    03:00 +8°C° 0 mm 3 mps 753 mmHg 90%
    04:00 +8°C° 0 mm 3 mps 753 mmHg 89%
    05:00 +9°C° 0 mm 3 mps 753 mmHg 88%
    06:00 +10°C° 0 mm 3 mps 753 mmHg 87%
    07:00 +10°C° 0 mm 4 mps 753 mmHg 86%
    08:00 +11°C° 0 mm 4 mps 753 mmHg 85%
    09:00 +11°C° 0 mm 4 mps 752 mmHg 84%
    10:00 +12°C° 0.1 mm 4 mps 752 mmHg 77%
    11:00 +14°C° 0.1 mm 4 mps 752 mmHg 71%
    12:00 +15°C° 0.1 mm 4 mps 752 mmHg 65%
    13:00 +15°C° 0.2 mm 4 mps 752 mmHg 66%
    14:00 +15°C° 0.2 mm 4 mps 751 mmHg 67%
    15:00 +15°C° 0.2 mm 5 mps 751 mmHg 69%
    16:00 +14°C° 0.1 mm 5 mps 751 mmHg 71%
    17:00 +14°C° 0.1 mm 5 mps 751 mmHg 73%
    18:00 +13°C° 0.1 mm 5 mps 750 mmHg 76%
    19:00 +12°C° 0 mm 5 mps 750 mmHg 80%
    20:00 +11°C° 0 mm 4 mps 750 mmHg 85%
    21:00 +10°C° 0 mm 3 mps 750 mmHg 89%
    22:00 +10°C° 0.1 mm 3 mps 750 mmHg 90%
    23:00 +10°C° 0.1 mm 3 mps 750 mmHg 91%

    Day after tomorrow, 5 June, Friday

    Time Temperature Precipitation Wind Pressure Humidity
    00:00 +9°C° 0.1 mm 3 mps 749 mmHg 92%
    01:00 +9°C° 0 mm 3 mps 749 mmHg 91%
    02:00 +8°C° 0 mm 4 mps 749 mmHg 91%
    03:00 +8°C° 0 mm 4 mps 749 mmHg 90%
    04:00 +8°C° 0 mm 5 mps 749 mmHg 88%
    05:00 +8°C° 0 mm 5 mps 749 mmHg 87%
    06:00 +8°C° 0 mm 5 mps 748 mmHg 85%
    07:00 +10°C° 0 mm 6 mps 749 mmHg 77%
    08:00 +11°C° 0 mm 6 mps 749 mmHg 69%
    09:00 +12°C° 0 mm 7 mps 749 mmHg 62%
    10:00 +14°C° 0 mm 7 mps 749 mmHg 59%
    11:00 +15°C° 0 mm 7 mps 749 mmHg 56%
    12:00 +15°C° 0 mm 7 mps 749 mmHg 53%
    13:00 +15°C° 0.1 mm 7 mps 748 mmHg 55%
    14:00 +15°C° 0.1 mm 7 mps 748 mmHg 57%
    15:00 +15°C° 0.1 mm 8 mps 748 mmHg 59%
    16:00 +14°C° 0.2 mm 7 mps 748 mmHg 64%
    17:00 +12°C° 0.2 mm 7 mps 748 mmHg 69%
    18:00 +11°C° 0.2 mm 7 mps 748 mmHg 74%
    19:00 +10°C° 0.3 mm 6 mps 748 mmHg 79%
    20:00 +9°C° 0.3 mm 5 mps 748 mmHg 83%
    21:00 +8°C° 0.3 mm 4 mps 749 mmHg 88%
    22:00 +7°C° 0 mm 4 mps 749 mmHg 87%
    23:00 +7°C° 0 mm 4 mps 749 mmHg 85%

    6 June, Saturday

    Time Temperature Precipitation Wind Pressure Humidity
    00:00 +6°C° 0 mm 4 mps 749 mmHg 84%
    01:00 +6°C° 0 mm 5 mps 749 mmHg 84%
    02:00 +5°C° 0 mm 5 mps 749 mmHg 84%
    03:00 +5°C° 0 mm 5 mps 749 mmHg 84%
    04:00 +5°C° 0 mm 6 mps 749 mmHg 82%
    05:00 +5°C° 0 mm 6 mps 749 mmHg 80%
    06:00 +6°C° 0 mm 7 mps 749 mmHg 78%
    07:00 +7°C° 0 mm 8 mps 749 mmHg 72%
    08:00 +9°C° 0 mm 8 mps 749 mmHg 66%
    09:00 +10°C° 0 mm 9 mps 750 mmHg 60%
    10:00 +10°C° 0 mm 9 mps 750 mmHg 60%
    11:00 +11°C° 0 mm 9 mps 750 mmHg 60%
    12:00 +11°C° 0 mm 9 mps 750 mmHg 60%
    13:00 +11°C° 0 mm 9 mps 750 mmHg 63%
    14:00 +11°C° 0 mm 9 mps 750 mmHg 65%
    15:00 +10°C° 0 mm 8 mps 750 mmHg 68%
    16:00 +10°C° 0 mm 8 mps 750 mmHg 69%
    17:00 +10°C° 0 mm 8 mps 750 mmHg 71%
    18:00 +10°C° 0 mm 7 mps 750 mmHg 72%
    19:00 +10°C° 0 mm 7 mps 750 mmHg 75%
    20:00 +9°C° 0 mm 7 mps 750 mmHg 79%
    21:00 +9°C° 0 mm 6 mps 751 mmHg 82%
    22:00 +9°C° 0 mm 6 mps 751 mmHg 82%
    23:00 +9°C° 0 mm 6 mps 751 mmHg 82%

    7 June, Sunday

    Time Temperature Precipitation Wind Pressure Humidity
    00:00 +9°C° 0 mm 6 mps 751 mmHg 81%
    01:00 +9°C° 0.2 mm 6 mps 751 mmHg 85%
    02:00 +9°C° 0.2 mm 5 mps 751 mmHg 89%
    03:00 +8°C° 0.2 mm 5 mps 751 mmHg 93%
    04:00 +10°C° 0.2 mm 4 mps 751 mmHg 92%
    05:00 +10°C° 0.2 mm 4 mps 752 mmHg 92%
    06:00 +11°C° 0.2 mm 3 mps 752 mmHg 91%
    07:00 +12°C° 0.1 mm 3 mps 752 mmHg 83%
    08:00 +13°C° 0.1 mm 3 mps 753 mmHg 76%
    09:00 +16°C° 0.1 mm 3 mps 753 mmHg 68%
    10:00 +16°C° 0.1 mm 3 mps 753 mmHg 65%
    11:00 +17°C° 0.1 mm 3 mps 754 mmHg 62%
    12:00 +18°C° 0.1 mm 3 mps 754 mmHg 59%
    13:00 +17°C° 0.7 mm 4 mps 754 mmHg 64%
    14:00 +17°C° 0.7 mm 4 mps 754 mmHg 70%
    15:00 +16°C° 0.7 mm 5 mps 754 mmHg 76%
    16:00 +15°C° 0.4 mm 5 mps 754 mmHg 77%
    17:00 +15°C° 0.4 mm 4 mps 754 mmHg 79%
    18:00 +15°C° 0.4 mm 4 mps 754 mmHg 81%
    19:00 +14°C° 0.1 mm 4 mps 755 mmHg 84%
    20:00 +12°C° 0.1 mm 3 mps 755 mmHg 87%
    21:00 +11°C° 0.1 mm 3 mps 756 mmHg 90%
    22:00 +11°C° 0 mm 3 mps 756 mmHg 90%
    23:00 +12°C° 0 mm 2 mps 756 mmHg 91%

    8 June, Monday

    Time Temperature Precipitation Wind Pressure Humidity
    00:00 +10°C° 0 mm 2 mps 756 mmHg 91%
    01:00 +12°C° 0 mm 2 mps 756 mmHg 91%
    02:00 +12°C° 0 mm 2 mps 756 mmHg 91%
    03:00 +12°C° 0 mm 2 mps 756 mmHg 91%
    04:00 +12°C° 0 mm 2 mps 757 mmHg 90%
    05:00 +13°C° 0 mm 2 mps 757 mmHg 89%
    06:00 +13°C° 0 mm 2 mps 757 mmHg 88%
    07:00 +13°C° 0 mm 3 mps 758 mmHg 82%
    08:00 +14°C° 0 mm 4 mps 758 mmHg 77%
    09:00 +15°C° 0 mm 4 mps 758 mmHg 71%
    10:00 +17°C° 0 mm 4 mps 759 mmHg 67%
    11:00 +18°C° 0 mm 4 mps 759 mmHg 64%
    12:00 +17°C° 0 mm 5 mps 759 mmHg 60%
    13:00 +19°C° 0.1 mm 4 mps 759 mmHg 60%
    14:00 +19°C° 0.1 mm 4 mps 759 mmHg 60%
    15:00 +19°C° 0.1 mm 4 mps 759 mmHg 61%
    16:00 +18°C° 0.2 mm 4 mps 759 mmHg 66%
    17:00 +18°C° 0.2 mm 4 mps 760 mmHg 71%
    18:00 +17°C° 0.2 mm 4 mps 760 mmHg 76%
    19:00 +14°C° 0.1 mm 3 mps 760 mmHg 80%
    20:00 +13°C° 0.1 mm 3 mps 761 mmHg 84%
    21:00 +12°C° 0.1 mm 2 mps 761 mmHg 88%
    22:00 +10°C° 0 mm 2 mps 761 mmHg 88%
    23:00 +10°C° 0 mm 2 mps 762 mmHg 88%
    Show more